Regional Weather Roundup
Issued by NWS Sioux Falls, SD

Home | Current Version | Previous Version | Text Only | Print | Product List | Glossary On
Versions: 1 2 3 4 5 6 7 8 9 10 11 12 13 14 15 16 17 18 19 20 21 22 23 24 25 26 27 28 29 30 31 32 33 34 35 36 37 38 39 40 41 42 43 44 45 46 47 48 49 50
000
ASUS43 KFSD 280610
RWRFSD

WEATHER ROUNDUP FOR SE SOUTH DAKOTA/SW MINNESOTA/NW IOWA
NATIONAL WEATHER SERVICE SIOUX FALLS SD
100 AM CDT TUE MAR 28 2017

NOTE: "FAIR" INDICATES FEW OR NO CLOUDS BELOW 12,000 FEET WITH NO
SIGNIFICANT WEATHER AND OR OBSTRUCTIONS TO VISIBILITY.


SDZ038>040-050-052>070-280700-
SOUTHEAST SOUTH DAKOTA

CITY           SKY/WX    TMP DP  RH WIND       PRES   REMARKS
BROOKINGS      CLOUDY    42  36  79 SE3       30.03R
CHAMBERLAIN    CLOUDY    45  38  78 E6        30.00R
6HR MIN TEMP:  45; 6HR MAX TEMP:  61;

HURON          CLEAR     41  36  82 SE9       30.02R
6HR MIN TEMP:  41; 6HR MAX TEMP:  58;

MADISON        MOCLDY    39  39 100 S6        30.03R
MITCHELL       MOCLDY    40  37  89 SE6       30.03R
6HR MIN TEMP:  39; 6HR MAX TEMP:  59;

SIOUX FALLS    CLEAR     41  37  86 S5        30.04R
6HR MIN TEMP:  40; 6HR MAX TEMP:  55;

WINNER         CLOUDY    49  39  68 SE10      29.97R
YANKTON        PTCLDY    43  37  81 E5        30.03R
$$

MNZ071-072-080-081-089-090-097-098-280700-
SOUTHWEST MINNESOTA

CITY           SKY/WX    TMP DP  RH WIND       PRES   REMARKS
FAIRMONT       CLEAR     38  37  97 W3        30.04R
JACKSON        CLEAR     37  36  93 W5        30.03S
LUVERNE        CLOUDY    36  34  93 N3        30.05R
MARSHALL       PTCLDY    38  34  85 CALM      30.04R
6HR MIN TEMP:  37; 6HR MAX TEMP:  55;

MONTEVIDEO     MOCLDY    39  32  75 CALM      30.06R
PIPESTONE      MOCLDY    41  36  81 CALM      30.03R
REDWOOD FALLS  MOCLDY    46  33  60 E5        30.03R
TRACY          MOCLDY    42  38  84 SW7       30.04R
WINDOM         PTCLDY    36  36 100 W3        30.04R
WORTHINGTON    MOCLDY    35  33  92 W6        30.04R
$$

IAZ001>003-012>014-020>022-031-032-NEZ013-014-SDZ071-280700-
NORTHWEST IOWA

CITY           SKY/WX    TMP DP  RH WIND       PRES   REMARKS
CHEROKEE       CLEAR     36  35  99 CALM      30.03S
DENISON        CLOUDY    46  41  81 E3        30.05S
ESTHERVILLE    CLEAR     34  34 100 NW5       30.03R FOG     WCI  30
LE MARS        CLEAR     34  34 100 CALM      30.05R FOG
ORANGE CITY    CLEAR     39  37  93 CALM      30.04R
SHELDON        CLEAR     32  32 100 CALM      30.03R
SIOUX CITY     CLEAR     37  36  96 CALM      30.04R
6HR MIN TEMP:  34; 6HR MAX TEMP:  54;

SPENCER        CLEAR     32  31  96 CALM      30.03R FOG
6HR MIN TEMP:  31; 6HR MAX TEMP:  49;

STORM LAKE     CLEAR     43  41  93 CALM      30.03R
$$

ABBREVIATIONS USED IN REMARKS
   TC - TEMPERATURE IN CELSIUS
  WCI - WIND CHILL INDEX
   HX - HEAT INDEX
  VSB - VISIBILITY




USA.gov is the U.S. government's official web portal to all federal, state and local government web resources and services.